Regional Weather Roundup
Issued by NWS Huntsville, AL

Home | Current Version | Previous Version | Text Only | Print | Product List | Glossary On
Versions: 1 2 3 4 5 6 7 8 9 10 11 12 13 14 15 16 17 18 19 20 21 22 23 24 25 26 27
000
ASUS44 KHUN 250310
RWRHUN

WEATHER ROUNDUP FOR THE TENNESSEE VALLEY
NATIONAL WEATHER SERVICE HUNTSVILLE AL
1000 PM CDT FRI OCT 24 2014

ALZ001>004-250400-
NORTHWEST ALABAMA

CITY           SKY/WX    TMP DP  RH WIND       PRES   REMARKS
COURTLAND HCN    N/A     50 N/A N/A CALM        N/A
RUSSELLVILLE     N/A     48 N/A N/A MISG        N/A
SHOALS AIRPORT MOCLDY    54  49  83 CALM      30.11R
SHOALS TVA RES   N/A     52 N/A N/A MISG        N/A
$$

ALZ005>007-016-250400-
NORTH CENTRAL ALABAMA

CITY           SKY/WX    TMP DP  RH WIND       PRES   REMARKS
CULLMAN AG STN   N/A     48 N/A N/A CALM        N/A
DECATUR AP     CLEAR     50  45  83 CALM      30.10R
HUNTSVILLE AP  CLEAR     55  43  63 CALM      30.09R
HUN NWS/UAH      N/A     55  43  63 CALM        N/A
MERIDIANVILLE  CLEAR     46  43  87 CALM      30.10R
VINEMONT AP    FAIR      47  44  91 CALM      30.11S
$$

ALZ008>010-250400-
NORTHEAST ALABAMA

CITY           SKY/WX    TMP DP  RH WIND       PRES   REMARKS
ALBERTVILLE    CLEAR     55  46  71 N5        30.08S
FORT PAYNE     CLEAR     45  41  87 CALM      30.08S
SCOTTSBORO AP    N/A     48  46  93 CALM      30.09S
SCOTTSBORO HCN   N/A     46 N/A N/A MISG        N/A
VALLEY HEAD      N/A     45 N/A N/A MISG        N/A
$$

TNZ076-096-097-250400-
SOUTHEASTERN MIDDLE TENNESSEE

CITY           SKY/WX    TMP DP  RH WIND       PRES   REMARKS
TULLAHOMA      CLEAR     46  43  87 CALM      30.10S
WINCHESTER     CLEAR     45  43  93 CALM      30.10S
$$

...SURROUNDING SITES...

CITY           SKY/WX    TMP DP  RH WIND       PRES   REMARKS
ATLANTA        PTCLDY    58  43  57 NW6       30.04S
ANNISTON       CLEAR     49  44  83 CALM      30.07S
BIRMINGHAM     CLEAR     52  44  74 CALM      30.10R
CHATTANOOGA    PTCLDY    52  46  80 CALM      30.08R
CORINTH        FOG       52  50  93 CALM      30.10R VSB 1
DALTON         CLEAR     48  46  93 CALM      30.06S
GADSDEN        CLEAR     46  39  76 CALM      30.08S
GOLDEN TRNGL   CLEAR     52  43  71 CALM      30.10S
HALEYVILLE     FAIR      48  46  93 CALM      30.13R
JACKSON TN     CLEAR     52  50  93 CALM      30.09S
MEMPHIS        PTCLDY    61  55  81 CALM      30.09S
NASHVILLE      PTCLDY    53  48  83 CALM      30.10R
OXFORD MS      FAIR      52  50  93 CALM      30.12S
ROME           CLEAR     48  44  86 CALM      30.06R
SAVANNAH       CLEAR     48  48 100 CALM      30.11R
TUPELO         CLEAR     55  51  86 CALM      30.10R
TUSCALOOSA     CLEAR     52  47  83 CALM      30.10R
$$

...GULF COAST WEATHER...

CITY           SKY/WX    TMP DP  RH WIND       PRES   REMARKS
GULFPORT       CLEAR     58  51  78 CALM      30.08R
PASCAGOULA     CLEAR     52  48  86 CALM      30.08R
MOBILE         CLEAR     55  49  80 CALM      30.08S
GULF SHORES    CLEAR     58  49  70 CALM      30.06S
PENSACOLA      CLEAR     56  48  74 NW3       30.06R
DESTIN         CLEAR     64  51  62 N7        30.05R
PANAMA CITY    CLEAR     56  52  85 CALM      30.04R
APPALACHICOLA  CLEAR     57  51  80 CALM      30.03R
$$




USA.gov is the U.S. government's official web portal to all federal, state and local government web resources and services.